| time (UTC) | temp C | wind direction | speed KPH | gust KPH | rain 1hr cm | rain 24hr cm | rain mn cm | humidity % | barometer mb |
| 20260906215004 | 30 | 7 | 1.6 | 1.6 | 0.00 | 0.00 | 0.00 | 32 | 1023.9 |
| 20260906214503 | 30 | 9 | 1.6 | 3.2 | 0.00 | 0.00 | 0.00 | 33 | 1024.0 |
| 20260906213957 | 30 | 349 | 3.2 | 3.2 | 0.00 | 0.00 | 0.00 | 32 | 1023.9 |
| 20260906213451 | 30 | 5 | 1.6 | 1.6 | 0.00 | 0.00 | 0.00 | 33 | 1023.9 |
| 20260906212950 | 30 | 5 | 4.8 | 4.8 | 0.00 | 0.00 | 0.00 | 34 | 1024.1 |
| 20260906212444 | 30 | 6 | 3.2 | 3.2 | 0.00 | 0.00 | 0.00 | 33 | 1024.1 |
| 20260906211940 | 30 | 338 | 3.2 | 3.2 | 0.00 | 0.00 | 0.00 | 34 | 1024.1 |
| 20260906211434 | 29 | 316 | 6.4 | 9.7 | 0.00 | 0.00 | 0.00 | 34 | 1024.0 |
| 20260906210930 | 30 | 32 | 0.0 | 1.6 | 0.00 | 0.00 | 0.00 | 34 | 1024.2 |
| 20260906210425 | 30 | 177 | 3.2 | 3.2 | 0.00 | 0.00 | 0.00 | 32 | 1023.9 |
| 20260906205919 | 30 | 353 | 4.8 | 8.0 | 0.00 | 0.00 | 0.00 | 34 | 1024.2 |
| 20260906205415 | 30 | 29 | 3.2 | 3.2 | 0.00 | 0.00 | 0.00 | 33 | 1024.2 |
| 20260906204911 | 29 | 313 | 3.2 | 4.8 | 0.00 | 0.00 | 0.00 | 35 | 1024.1 |
| 20260906204410 | 30 | 218 | 4.8 | 8.0 | 0.00 | 0.00 | 0.00 | 34 | 1024.4 |
| 20260906203909 | 30 | 345 | 6.4 | 8.0 | 0.00 | 0.00 | 0.00 | 34 | 1024.7 |
| 20260906203404 | 29 | 351 | 4.8 | 8.0 | 0.00 | 0.00 | 0.00 | 36 | 1024.7 |
| 20260906202902 | 28 | 178 | 4.8 | 4.8 | 0.00 | 0.00 | 0.00 | 35 | 1024.8 |
| 20260906202356 | 29 | 72 | 4.8 | 8.0 | 0.00 | 0.00 | 0.00 | 35 | 1024.7 |
| 20260906201856 | 29 | 350 | 3.2 | 3.2 | 0.00 | 0.00 | 0.00 | 34 | 1024.8 |
| 20260906201350 | 29 | 306 | 3.2 | 3.2 | 0.00 | 0.00 | 0.00 | 34 | 1024.8 |
| 20260906200846 | 29 | 346 | 4.8 | 4.8 | 0.00 | 0.00 | 0.00 | 34 | 1024.7 |
| 20260906200342 | 29 | 15 | 0.0 | 1.6 | 0.00 | 0.00 | 0.00 | 35 | 1024.8 |
| 20260906195836 | 28 | 352 | 3.2 | 4.8 | 0.00 | 0.00 | 0.00 | 35 | 1024.8 |
| 20260906195333 | 28 | 323 | 1.6 | 3.2 | 0.00 | 0.00 | 0.00 | 35 | 1025.1 |
| 20260906194829 | 28 | 38 | 0.0 | 1.6 | 0.00 | 0.00 | 0.00 | 35 | 1025.1 |
| 20260906194324 | 28 | 9 | 1.6 | 3.2 | 0.00 | 0.00 | 0.00 | 34 | 1025.1 |
| 20260906193819 | 29 | 341 | 3.2 | 3.2 | 0.00 | 0.00 | 0.00 | 31 | 1025.2 |
| 20260906193314 | 28 | 11 | 4.8 | 8.0 | 0.00 | 0.00 | 0.00 | 33 | 1025.0 |
| 20260906192809 | 28 | 181 | 4.8 | 4.8 | 0.00 | 0.00 | 0.00 | 33 | 1025.2 |
| 20260906192306 | 30 | 355 | 8.0 | 9.7 | 0.00 | 0.00 | 0.00 | 33 | 1025.1 |
| 20260906191803 | 30 | 355 | 6.4 | 8.0 | 0.00 | 0.00 | 0.00 | 32 | 1025.1 |
| 20260906191258 | 30 | 351 | 1.6 | 3.2 | 0.00 | 0.00 | 0.00 | 31 | 1025.2 |
| 20260906190758 | 29 | 0 | 1.6 | 3.2 | 0.00 | 0.00 | 0.00 | 32 | 1025.5 |
| 20260906190252 | 29 | 286 | 4.8 | 4.8 | 0.00 | 0.00 | 0.00 | 32 | 1025.2 |
| 20260906185751 | 28 | 209 | 1.6 | 3.2 | 0.00 | 0.00 | 0.00 | 34 | 1025.3 |
| 20260906185250 | 28 | 24 | 1.6 | 1.6 | 0.00 | 0.00 | 0.00 | 34 | 1025.6 |
| 20260906184745 | 28 | 223 | 6.4 | 11.3 | 0.00 | 0.00 | 0.00 | 34 | 1025.6 |
| 20260906184240 | 28 | 340 | 3.2 | 3.2 | 0.00 | 0.00 | 0.00 | 33 | 1025.8 |
| 20260906183736 | 28 | 3 | 1.6 | 1.6 | 0.00 | 0.00 | 0.00 | 34 | 1025.8 |
| 20260906183233 | 28 | 62 | 3.2 | 3.2 | 0.00 | 0.00 | 0.00 | 34 | 1025.8 |
| 20260906182732 | 28 | 43 | 0.0 | 1.6 | 0.00 | 0.00 | 0.00 | 34 | 1026.2 |
| 20260906182228 | 28 | 344 | 8.0 | 11.3 | 0.00 | 0.00 | 0.00 | 34 | 1026.2 |
| 20260906181723 | 28 | 259 | 1.6 | 3.2 | 0.00 | 0.00 | 0.00 | 34 | 1026.2 |
| 20260906181220 | 28 | 324 | 1.6 | 1.6 | 0.00 | 0.00 | 0.00 | 34 | 1026.5 |
| 20260906180720 | 28 | 25 | 1.6 | 3.2 | 0.00 | 0.00 | 0.00 | 35 | 1026.3 |
| 20260906180214 | 27 | 19 | 4.8 | 4.8 | 0.00 | 0.00 | 0.00 | 34 | 1026.6 |
| 20260906175712 | 27 | 323 | 6.4 | 8.0 | 0.00 | 0.00 | 0.00 | 35 | 1026.3 |
| 20260906175208 | 27 | 335 | 3.2 | 4.8 | 0.00 | 0.00 | 0.00 | 35 | 1026.6 |
| 20260906174706 | 27 | 9 | 1.6 | 3.2 | 0.00 | 0.00 | 0.00 | 36 | 1026.8 |
| 20260906174201 | 26 | 315 | 1.6 | 3.2 | 0.00 | 0.00 | 0.00 | 36 | 1026.8 |
| 20260906173656 | 27 | 22 | 4.8 | 8.0 | 0.00 | 0.00 | 0.00 | 35 | 1027.0 |
| 20260906173152 | 27 | 356 | 1.6 | 1.6 | 0.00 | 0.00 | 0.00 | 35 | 1027.0 |
| 20260906172651 | 27 | 4 | 6.4 | 9.7 | 0.00 | 0.00 | 0.00 | 36 | 1026.7 |
| 20260906172147 | 27 | 4 | 4.8 | 8.0 | 0.00 | 0.00 | 0.00 | 35 | 1027.0 |
| 20260906171646 | 26 | 283 | 1.6 | 3.2 | 0.00 | 0.00 | 0.00 | 35 | 1026.8 |
| 20260906171142 | 26 | 347 | 3.2 | 3.2 | 0.00 | 0.00 | 0.00 | 36 | 1027.1 |
| 20260906170638 | 26 | 18 | 4.8 | 8.0 | 0.00 | 0.00 | 0.00 | 36 | 1027.0 |
| 20260906170137 | 26 | 5 | 4.8 | 8.0 | 0.00 | 0.00 | 0.00 | 36 | 1027.2 |
| 20260906165633 | 26 | 338 | 3.2 | 3.2 | 0.00 | 0.00 | 0.00 | 36 | 1027.2 |
| 20260906165129 | 26 | 18 | 1.6 | 3.2 | 0.00 | 0.00 | 0.00 | 37 | 1026.8 |
| 20260906164627 | 25 | 322 | 1.6 | 3.2 | 0.00 | 0.00 | 0.00 | 37 | 1027.3 |
| 20260906164123 | 25 | 316 | 1.6 | 3.2 | 0.00 | 0.00 | 0.00 | 38 | 1027.0 |
| 20260906163619 | 25 | 36 | 3.2 | 3.2 | 0.00 | 0.00 | 0.00 | 38 | 1027.2 |
| 20260906163115 | 25 | 22 | 3.2 | 4.8 | 0.00 | 0.00 | 0.00 | 38 | 1027.2 |
| 20260906162612 | 26 | 6 | 3.2 | 4.8 | 0.00 | 0.00 | 0.00 | 36 | 1027.3 |
| 20260906162107 | 25 | 27 | 3.2 | 3.2 | 0.00 | 0.00 | 0.00 | 37 | 1027.1 |
| 20260906161601 | 25 | 235 | 3.2 | 3.2 | 0.00 | 0.00 | 0.00 | 37 | 1027.2 |
| 20260906161100 | 25 | 203 | 1.6 | 3.2 | 0.00 | 0.00 | 0.00 | 37 | 1027.1 |
| 20260906160559 | 24 | 251 | 4.8 | 4.8 | 0.00 | 0.00 | 0.00 | 38 | 1027.2 |
| 20260906160058 | 24 | 332 | 3.2 | 3.2 | 0.00 | 0.00 | 0.00 | 38 | 1027.1 |
| 20260906155556 | 23 | 63 | 0.0 | 1.6 | 0.00 | 0.00 | 0.00 | 39 | 1027.3 |
| 20260906155052 | 23 | 45 | 0.0 | 0.0 | 0.00 | 0.00 | 0.00 | 39 | 1027.1 |
| 20260906154547 | 23 | 302 | 1.6 | 1.6 | 0.00 | 0.00 | 0.00 | 39 | 1027.2 |
| 20260906154046 | 23 | 14 | 1.6 | 1.6 | 0.00 | 0.00 | 0.00 | 39 | 1027.1 |
| 20260906153544 | 23 | 338 | 1.6 | 3.2 | 0.00 | 0.00 | 0.00 | 39 | 1027.1 |
| 20260906153040 | 22 | 330 | 4.8 | 4.8 | 0.00 | 0.00 | 0.00 | 40 | 1027.0 |
| 20260906152539 | 22 | 38 | 0.0 | 0.0 | 0.00 | 0.00 | 0.00 | 42 | 1027.0 |
| 20260906152039 | 22 | 48 | 1.6 | 3.2 | 0.00 | 0.00 | 0.00 | 43 | 1027.0 |
| 20260906151534 | 21 | 41 | 1.6 | 3.2 | 0.00 | 0.00 | 0.00 | 44 | 1027.1 |
| 20260906151030 | 21 | 10 | 0.0 | 0.0 | 0.00 | 0.00 | 0.00 | 45 | 1026.8 |
| 20260906150525 | 21 | 161 | 1.6 | 3.2 | 0.00 | 0.00 | 0.00 | 45 | 1027.2 |
| 20260906150020 | 20 | 47 | 0.0 | 0.0 | 0.00 | 0.00 | 0.00 | 47 | 1027.1 |
| 20260906145519 | 20 | 32 | 0.0 | 1.6 | 0.00 | 0.00 | 0.00 | 48 | 1027.1 |
| 20260906145014 | 20 | 66 | 1.6 | 1.6 | 0.00 | 0.00 | 0.00 | 48 | 1027.0 |
| 20260906144508 | 20 | 163 | 1.6 | 1.6 | 0.00 | 0.00 | 0.00 | 50 | 1027.0 |
| 20260906144004 | 20 | 55 | 1.6 | 1.6 | 0.00 | 0.00 | 0.00 | 50 | 1027.1 |
| 20260906143459 | 19 | 66 | 1.6 | 1.6 | 0.00 | 0.00 | 0.00 | 51 | 1026.6 |
| 20260906142955 | 18 | 66 | 1.6 | 1.6 | 0.00 | 0.00 | 0.00 | 51 | 1026.6 |
| 20260906142449 | 18 | 130 | 3.2 | 4.8 | 0.00 | 0.00 | 0.00 | 52 | 1026.8 |
| 20260906141944 | 18 | 48 | 1.6 | 1.6 | 0.00 | 0.00 | 0.00 | 54 | 1026.7 |
| 20260906141443 | 18 | 108 | 3.2 | 3.2 | 0.00 | 0.00 | 0.00 | 54 | 1026.6 |
| 20260906140938 | 17 | 136 | 1.6 | 3.2 | 0.00 | 0.00 | 0.00 | 55 | 1026.6 |
| 20260906140433 | 17 | 88 | 1.6 | 3.2 | 0.00 | 0.00 | 0.00 | 56 | 1026.7 |
| 20260906135931 | 17 | 72 | 1.6 | 1.6 | 0.00 | 0.00 | 0.00 | 57 | 1026.8 |
| 20260906135430 | 17 | 44 | 0.0 | 1.6 | 0.00 | 0.00 | 0.00 | 57 | 1026.7 |
| 20260906134926 | 17 | 47 | 0.0 | 1.6 | 0.00 | 0.00 | 0.00 | 58 | 1026.8 |
| 20260906134421 | 16 | 62 | 0.0 | 0.0 | 0.00 | 0.00 | 0.00 | 57 | 1026.7 |
| 20260906133916 | 16 | 55 | 1.6 | 3.2 | 0.00 | 0.00 | 0.00 | 58 | 1026.6 |
| 20260906133412 | 16 | 61 | 0.0 | 1.6 | 0.00 | 0.00 | 0.00 | 58 | 1026.5 |
| 20260906132907 | 16 | 73 | 1.6 | 1.6 | 0.00 | 0.00 | 0.00 | 58 | 1026.6 |
| 20260906132402 | 16 | 51 | 0.0 | 1.6 | 0.00 | 0.00 | 0.00 | 58 | 1026.5 |
| 20260906131858 | 16 | 83 | 1.6 | 3.2 | 0.00 | 0.00 | 0.00 | 57 | 1026.5 |
| 20260906131353 | 16 | 87 | 3.2 | 4.8 | 0.00 | 0.00 | 0.00 | 57 | 1026.3 |
| 20260906130849 | 16 | 85 | 3.2 | 3.2 | 0.00 | 0.00 | 0.00 | 57 | 1026.1 |
| 20260906130348 | 16 | 73 | 1.6 | 3.2 | 0.00 | 0.00 | 0.00 | 57 | 1026.3 |
| 20260906125847 | 16 | 55 | 4.8 | 4.8 | 0.00 | 0.00 | 0.00 | 56 | 1026.3 |
| 20260906125344 | 16 | 63 | 1.6 | 1.6 | 0.00 | 0.00 | 0.00 | 56 | 1026.1 |
| 20260906124839 | 16 | 101 | 3.2 | 3.2 | 0.00 | 0.00 | 0.00 | 55 | 1026.3 |
| 20260906124336 | 16 | 64 | 1.6 | 3.2 | 0.00 | 0.00 | 0.00 | 55 | 1026.2 |
| 20260906123835 | 17 | 59 | 1.6 | 1.6 | 0.00 | 0.00 | 0.00 | 55 | 1026.3 |
| 20260906123330 | 17 | 58 | 0.0 | 1.6 | 0.00 | 0.00 | 0.00 | 54 | 1026.1 |
| 20260906122829 | 17 | 78 | 1.6 | 1.6 | 0.00 | 0.00 | 0.00 | 54 | 1026.0 |
| 20260906122324 | 17 | 62 | 0.0 | 1.6 | 0.00 | 0.00 | 0.00 | 54 | 1026.0 |
| 20260906121821 | 17 | 188 | 1.6 | 1.6 | 0.00 | 0.00 | 0.00 | 53 | 1026.3 |
| 20260906121317 | 17 | 88 | 1.6 | 1.6 | 0.00 | 0.00 | 0.00 | 53 | 1025.8 |
| 20260906120813 | 17 | 80 | 1.6 | 1.6 | 0.00 | 0.00 | 0.00 | 53 | 1026.1 |
| 20260906120309 | 17 | 124 | 3.2 | 4.8 | 0.00 | 0.00 | 0.00 | 53 | 1026.2 |
| 20260906115805 | 17 | 47 | 0.0 | 1.6 | 0.00 | 0.00 | 0.00 | 53 | 1026.2 |
| 20260906115259 | 17 | 77 | 1.6 | 1.6 | 0.00 | 0.00 | 0.00 | 53 | 1026.3 |
| 20260906114759 | 17 | 129 | 1.6 | 3.2 | 0.00 | 0.00 | 0.00 | 53 | 1026.1 |
| 20260906114254 | 17 | 43 | 1.6 | 1.6 | 0.00 | 0.00 | 0.00 | 53 | 1025.8 |
| 20260906113749 | 17 | 50 | 0.0 | 0.0 | 0.00 | 0.00 | 0.00 | 52 | 1026.1 |
| 20260906113249 | 17 | 63 | 1.6 | 1.6 | 0.00 | 0.00 | 0.00 | 52 | 1026.0 |
| 20260906112749 | 17 | 58 | 0.0 | 1.6 | 0.00 | 0.00 | 0.00 | 52 | 1025.8 |
| 20260906112245 | 17 | 50 | 0.0 | 1.6 | 0.00 | 0.00 | 0.00 | 52 | 1025.8 |
| 20260906111745 | 17 | 143 | 1.6 | 1.6 | 0.00 | 0.00 | 0.00 | 51 | 1025.7 |
| 20260906111244 | 17 | 101 | 1.6 | 1.6 | 0.00 | 0.00 | 0.00 | 51 | 1025.8 |
| 20260906110739 | 17 | 100 | 1.6 | 3.2 | 0.00 | 0.00 | 0.00 | 51 | 1025.8 |
| 20260906110236 | 17 | 51 | 0.0 | 0.0 | 0.00 | 0.00 | 0.00 | 51 | 1025.8 |
| 20260906105734 | 17 | 54 | 0.0 | 0.0 | 0.00 | 0.00 | 0.00 | 50 | 1025.8 |
| 20260906105230 | 18 | 124 | 1.6 | 1.6 | 0.00 | 0.00 | 0.00 | 50 | 1025.8 |
| 20260906104725 | 18 | 78 | 1.6 | 1.6 | 0.00 | 0.00 | 0.00 | 49 | 1025.8 |
| 20260906104224 | 18 | 98 | 1.6 | 1.6 | 0.00 | 0.00 | 0.00 | 49 | 1025.6 |
| 20260906103722 | 18 | 119 | 3.2 | 3.2 | 0.00 | 0.00 | 0.00 | 49 | 1025.8 |
| 20260906103217 | 18 | 109 | 3.2 | 3.2 | 0.00 | 0.00 | 0.00 | 50 | 1025.7 |
| 20260906102712 | 18 | 91 | 1.6 | 1.6 | 0.00 | 0.00 | 0.00 | 50 | 1026.0 |
| 20260906102211 | 18 | 69 | 1.6 | 1.6 | 0.00 | 0.00 | 0.00 | 50 | 1026.1 |
| 20260906101706 | 18 | 108 | 1.6 | 1.6 | 0.00 | 0.00 | 0.00 | 50 | 1025.7 |
| 20260906101201 | 18 | 102 | 1.6 | 1.6 | 0.00 | 0.00 | 0.00 | 50 | 1025.8 |
| 20260906100657 | 18 | 56 | 1.6 | 1.6 | 0.00 | 0.00 | 0.00 | 50 | 1026.2 |
| 20260906100157 | 18 | 104 | 1.6 | 1.6 | 0.00 | 0.00 | 0.00 | 51 | 1026.0 |
| 20260906095652 | 18 | 94 | 1.6 | 3.2 | 0.00 | 0.00 | 0.00 | 52 | 1026.1 |
| 20260906095147 | 18 | 81 | 1.6 | 1.6 | 0.00 | 0.00 | 0.00 | 52 | 1026.2 |
| 20260906094646 | 18 | 65 | 0.0 | 1.6 | 0.00 | 0.00 | 0.00 | 52 | 1026.3 |
| 20260906094142 | 18 | 56 | 0.0 | 1.6 | 0.00 | 0.00 | 0.00 | 52 | 1026.1 |
| 20260906093638 | 18 | 62 | 1.6 | 1.6 | 0.00 | 0.00 | 0.00 | 53 | 1026.1 |
| 20260906093138 | 17 | 97 | 1.6 | 1.6 | 0.00 | 0.00 | 0.00 | 54 | 1026.2 |
| 20260906092632 | 17 | 145 | 1.6 | 3.2 | 0.00 | 0.00 | 0.00 | 55 | 1026.2 |
| 20260906092127 | 17 | 101 | 1.6 | 1.6 | 0.00 | 0.00 | 0.00 | 56 | 1025.8 |
| 20260906091624 | 17 | 106 | 1.6 | 3.2 | 0.00 | 0.00 | 0.00 | 57 | 1025.8 |
| 20260906091120 | 17 | 107 | 1.6 | 1.6 | 0.00 | 0.00 | 0.00 | 59 | 1026.1 |
| 20260906090615 | 17 | 80 | 1.6 | 1.6 | 0.00 | 0.00 | 0.00 | 61 | 1026.0 |
| 20260906090115 | 17 | 107 | 1.6 | 3.2 | 0.00 | 0.00 | 0.00 | 62 | 1026.0 |
| 20260906085614 | 17 | 100 | 1.6 | 1.6 | 0.00 | 0.00 | 0.00 | 64 | 1025.8 |
| 20260906085108 | 17 | 85 | 1.6 | 1.6 | 0.00 | 0.00 | 0.00 | 65 | 1026.1 |
| 20260906084603 | 17 | 126 | 1.6 | 3.2 | 0.00 | 0.00 | 0.00 | 65 | 1026.0 |
| 20260906084102 | 17 | 52 | 0.0 | 1.6 | 0.00 | 0.00 | 0.00 | 64 | 1026.0 |
| 20260906083558 | 17 | 100 | 1.6 | 1.6 | 0.00 | 0.00 | 0.00 | 64 | 1026.2 |
| 20260906083057 | 17 | 67 | 1.6 | 1.6 | 0.00 | 0.00 | 0.00 | 64 | 1026.1 |
| 20260906082553 | 17 | 45 | 1.6 | 1.6 | 0.00 | 0.00 | 0.00 | 64 | 1026.3 |
| 20260906082048 | 17 | 56 | 0.0 | 0.0 | 0.00 | 0.00 | 0.00 | 63 | 1026.0 |
| 20260906081544 | 17 | 46 | 0.0 | 0.0 | 0.00 | 0.00 | 0.00 | 63 | 1026.1 |
| 20260906081039 | 17 | 69 | 1.6 | 1.6 | 0.00 | 0.00 | 0.00 | 62 | 1026.2 |
| 20260906080536 | 17 | 59 | 1.6 | 1.6 | 0.00 | 0.00 | 0.00 | 62 | 1026.0 |
| 20260906080031 | 17 | 62 | 0.0 | 1.6 | 0.00 | 0.00 | 0.00 | 63 | 1026.1 |
| 20260906075525 | 17 | 66 | 0.0 | 1.6 | 0.00 | 0.00 | 0.00 | 64 | 1026.1 |
| 20260906075020 | 17 | 81 | 1.6 | 1.6 | 0.00 | 0.00 | 0.00 | 65 | 1026.3 |
| 20260906074515 | 17 | 64 | 0.0 | 0.0 | 0.00 | 0.00 | 0.00 | 65 | 1026.2 |
| 20260906074014 | 17 | 81 | 1.6 | 1.6 | 0.00 | 0.00 | 0.00 | 66 | 1026.5 |
| 20260906073509 | 17 | 97 | 0.0 | 1.6 | 0.00 | 0.00 | 0.00 | 67 | 1026.6 |
| 20260906073005 | 17 | 80 | 1.6 | 1.6 | 0.00 | 0.00 | 0.00 | 69 | 1026.2 |
| 20260906072500 | 17 | 70 | 1.6 | 1.6 | 0.00 | 0.00 | 0.00 | 70 | 1026.3 |
| 20260906071955 | 17 | 74 | 0.0 | 0.0 | 0.00 | 0.00 | 0.00 | 70 | 1026.5 |
| 20260906071451 | 17 | 74 | 0.0 | 0.0 | 0.00 | 0.00 | 0.00 | 71 | 1026.7 |
| 20260906070947 | 17 | 76 | 0.0 | 0.0 | 0.00 | 0.00 | 0.00 | 70 | 1026.3 |
| 20260906070443 | 17 | 76 | 1.6 | 1.6 | 0.00 | 0.00 | 0.00 | 70 | 1026.5 |
| 20260906065938 | 17 | 92 | 1.6 | 1.6 | 0.00 | 0.00 | 0.00 | 70 | 1026.3 |
| 20260906065438 | 17 | 72 | 0.0 | 1.6 | 0.00 | 0.00 | 0.00 | 70 | 1026.7 |
| 20260906064933 | 17 | 74 | 0.0 | 1.6 | 0.00 | 0.00 | 0.00 | 70 | 1026.3 |
| 20260906064430 | 17 | 99 | 1.6 | 1.6 | 0.00 | 0.00 | 0.00 | 69 | 1026.6 |
| 20260906063924 | 17 | 69 | 1.6 | 1.6 | 0.00 | 0.00 | 0.00 | 69 | 1026.7 |
| 20260906063419 | 17 | 70 | 0.0 | 1.6 | 0.00 | 0.00 | 0.00 | 69 | 1026.6 |
| 20260906062914 | 17 | 63 | 0.0 | 1.6 | 0.00 | 0.00 | 0.00 | 69 | 1026.6 |
| 20260906062409 | 17 | 94 | 1.6 | 1.6 | 0.00 | 0.00 | 0.00 | 69 | 1026.5 |
| 20260906061904 | 17 | 80 | 1.6 | 1.6 | 0.00 | 0.00 | 0.00 | 70 | 1026.8 |
| 20260906061400 | 17 | 89 | 1.6 | 1.6 | 0.00 | 0.00 | 0.00 | 70 | 1026.3 |
| 20260906060854 | 17 | 70 | 0.0 | 1.6 | 0.00 | 0.00 | 0.00 | 70 | 1026.5 |
| 20260906060352 | 17 | 100 | 1.6 | 1.6 | 0.00 | 0.00 | 0.00 | 70 | 1026.5 |
| 20260906055848 | 17 | 103 | 1.6 | 1.6 | 0.00 | 0.00 | 0.00 | 71 | 1026.2 |
| 20260906055343 | 17 | 88 | 1.6 | 1.6 | 0.00 | 0.00 | 0.00 | 71 | 1026.2 |
| 20260906054838 | 17 | 121 | 1.6 | 1.6 | 0.00 | 0.00 | 0.00 | 71 | 1026.2 |
| 20260906054333 | 17 | 155 | 1.6 | 1.6 | 0.00 | 0.00 | 0.00 | 71 | 1026.2 |
| 20260906053830 | 17 | 107 | 1.6 | 1.6 | 0.00 | 0.00 | 0.00 | 71 | 1026.1 |
| 20260906053325 | 17 | 111 | 1.6 | 1.6 | 0.00 | 0.00 | 0.00 | 70 | 1025.8 |
| 20260906052820 | 17 | 164 | 1.6 | 1.6 | 0.00 | 0.00 | 0.00 | 71 | 1026.2 |
| 20260906052317 | 17 | 91 | 1.6 | 1.6 | 0.00 | 0.00 | 0.00 | 71 | 1026.2 |
| 20260906051814 | 17 | 167 | 1.6 | 1.6 | 0.00 | 0.00 | 0.00 | 71 | 1026.3 |
| 20260906051313 | 17 | 144 | 1.6 | 1.6 | 0.00 | 0.00 | 0.00 | 71 | 1026.1 |
| 20260906050809 | 17 | 109 | 1.6 | 1.6 | 0.00 | 0.00 | 0.00 | 70 | 1026.1 |
| 20260906050304 | 18 | 102 | 1.6 | 1.6 | 0.00 | 0.00 | 0.00 | 70 | 1026.2 |
| 20260906045802 | 18 | 115 | 1.6 | 1.6 | 0.00 | 0.00 | 0.00 | 69 | 1026.2 |
| 20260906045257 | 18 | 101 | 1.6 | 1.6 | 0.00 | 0.00 | 0.00 | 70 | 1026.2 |
| 20260906044753 | 18 | 81 | 1.6 | 1.6 | 0.00 | 0.00 | 0.00 | 70 | 1026.5 |
| 20260906044248 | 18 | 100 | 1.6 | 1.6 | 0.00 | 0.00 | 0.00 | 70 | 1026.6 |
| 20260906043744 | 18 | 109 | 1.6 | 1.6 | 0.00 | 0.00 | 0.00 | 70 | 1026.5 |
| 20260906043240 | 18 | 147 | 1.6 | 1.6 | 0.00 | 0.00 | 0.00 | 70 | 1026.5 |
| 20260906042739 | 18 | 107 | 1.6 | 1.6 | 0.00 | 0.00 | 0.00 | 70 | 1026.8 |
| 20260906042238 | 18 | 89 | 1.6 | 1.6 | 0.00 | 0.00 | 0.00 | 69 | 1026.7 |
| 20260906041734 | 18 | 65 | 0.0 | 1.6 | 0.00 | 0.00 | 0.00 | 69 | 1026.5 |
| 20260906041229 | 18 | 56 | 0.0 | 0.0 | 0.00 | 0.00 | 0.00 | 69 | 1026.6 |
| 20260906040725 | 18 | 91 | 1.6 | 1.6 | 0.00 | 0.00 | 0.00 | 69 | 1026.6 |
| 20260906040220 | 18 | 118 | 1.6 | 1.6 | 0.00 | 0.00 | 0.00 | 69 | 1026.6 |
| 20260906035715 | 18 | 35 | 0.0 | 0.0 | 0.00 | 0.00 | 0.00 | 69 | 1026.6 |
| 20260906035211 | 18 | 78 | 1.6 | 1.6 | 0.00 | 0.00 | 0.00 | 68 | 1026.5 |
| 20260906034710 | 18 | 76 | 0.0 | 1.6 | 0.00 | 0.00 | 0.00 | 68 | 1026.6 |
| 20260906034205 | 18 | 71 | 1.6 | 1.6 | 0.00 | 0.00 | 0.00 | 67 | 1026.8 |
| 20260906033701 | 18 | 71 | 0.0 | 0.0 | 0.00 | 0.00 | 0.00 | 66 | 1026.5 |
| 20260906033201 | 19 | 32 | 0.0 | 0.0 | 0.00 | 0.00 | 0.00 | 66 | 1026.8 |
| 20260906032658 | 19 | 41 | 0.0 | 0.0 | 0.00 | 0.00 | 0.00 | 66 | 1026.7 |
| 20260906032152 | 20 | 12 | 0.0 | 0.0 | 0.00 | 0.00 | 0.00 | 65 | 1026.7 |
| 20260906031648 | 20 | 20 | 0.0 | 0.0 | 0.00 | 0.00 | 0.00 | 64 | 1026.6 |
| 20260906031143 | 20 | 22 | 0.0 | 0.0 | 0.00 | 0.00 | 0.00 | 64 | 1026.5 |
| 20260906030642 | 20 | 17 | 1.6 | 1.6 | 0.00 | 0.00 | 0.00 | 63 | 1026.3 |
| 20260906030138 | 20 | 47 | 1.6 | 1.6 | 0.00 | 0.00 | 0.00 | 63 | 1026.2 |
| 20260906025637 | 21 | 7 | 1.6 | 1.6 | 0.00 | 0.00 | 0.00 | 62 | 1026.0 |
| 20260906025136 | 21 | 341 | 0.0 | 1.6 | 0.00 | 0.00 | 0.00 | 62 | 1026.2 |
| 20260906024631 | 21 | 24 | 1.6 | 3.2 | 0.00 | 0.00 | 0.00 | 61 | 1026.0 |
| 20260906024125 | 21 | 12 | 3.2 | 3.2 | 0.00 | 0.00 | 0.00 | 61 | 1026.1 |
| 20260906023621 | 21 | 354 | 1.6 | 3.2 | 0.00 | 0.00 | 0.00 | 58 | 1026.0 |
| 20260906023121 | 21 | 358 | 1.6 | 1.6 | 0.00 | 0.00 | 0.00 | 53 | 1025.8 |
| 20260906022616 | 21 | 22 | 1.6 | 1.6 | 0.00 | 0.00 | 0.00 | 47 | 1026.1 |
| 20260906022112 | 21 | 80 | 1.6 | 1.6 | 0.00 | 0.00 | 0.00 | 43 | 1025.8 |
| 20260906021608 | 21 | 158 | 1.6 | 1.6 | 0.00 | 0.00 | 0.00 | 38 | 1025.7 |
| 20260906021106 | 21 | 143 | 1.6 | 1.6 | 0.00 | 0.00 | 0.00 | 38 | 1025.2 |
| 20260906020606 | 21 | 128 | 1.6 | 1.6 | 0.00 | 0.00 | 0.00 | 38 | 1024.8 |
| 20260906020101 | 21 | 145 | 1.6 | 1.6 | 0.00 | 0.00 | 0.00 | 37 | 1025.0 |
| 20260906015600 | 21 | 139 | 1.6 | 1.6 | 0.00 | 0.00 | 0.00 | 37 | 1025.3 |
| 20260906015059 | 21 | 137 | 1.6 | 1.6 | 0.00 | 0.00 | 0.00 | 37 | 1024.7 |
| 20260906014554 | 21 | 153 | 1.6 | 3.2 | 0.00 | 0.00 | 0.00 | 37 | 1025.1 |
| 20260906014050 | 22 | 150 | 1.6 | 3.2 | 0.00 | 0.00 | 0.00 | 37 | 1024.8 |
| 20260906013545 | 22 | 139 | 1.6 | 1.6 | 0.00 | 0.00 | 0.00 | 37 | 1024.8 |
| 20260906013041 | 22 | 152 | 3.2 | 3.2 | 0.00 | 0.00 | 0.00 | 36 | 1024.8 |
| 20260906012536 | 22 | 163 | 3.2 | 3.2 | 0.00 | 0.00 | 0.00 | 36 | 1025.1 |
| 20260906012035 | 23 | 97 | 1.6 | 1.6 | 0.00 | 0.00 | 0.00 | 37 | 1024.8 |
| 20260906011531 | 23 | 96 | 1.6 | 1.6 | 0.00 | 0.00 | 0.00 | 36 | 1024.7 |
| 20260906011031 | 24 | 81 | 1.6 | 1.6 | 0.00 | 0.00 | 0.00 | 35 | 1025.1 |
| 20260906010526 | 24 | 62 | 0.0 | 0.0 | 0.00 | 0.00 | 0.00 | 34 | 1025.2 |
| 20260906010023 | 25 | 39 | 0.0 | 0.0 | 0.00 | 0.00 | 0.00 | 33 | 1025.1 |
| 20260906005521 | 25 | 45 | 1.6 | 3.2 | 0.00 | 0.00 | 0.00 | 33 | 1025.1 |
| 20260906005020 | 25 | 40 | 0.0 | 0.0 | 0.00 | 0.00 | 0.00 | 33 | 1025.2 |
| 20260906004515 | 25 | 27 | 0.0 | 0.0 | 0.00 | 0.00 | 0.00 | 34 | 1025.5 |
| 20260906004010 | 25 | 17 | 0.0 | 0.0 | 0.00 | 0.00 | 0.00 | 33 | 1025.3 |
| 20260906003505 | 25 | 27 | 0.0 | 0.0 | 0.00 | 0.00 | 0.00 | 34 | 1025.3 |
| 20260906003000 | 24 | 8 | 1.6 | 1.6 | 0.00 | 0.00 | 0.00 | 34 | 1025.5 |
| 20260906002455 | 24 | 27 | 1.6 | 1.6 | 0.00 | 0.00 | 0.00 | 34 | 1025.3 |
| 20260906001950 | 25 | 26 | 0.0 | 0.0 | 0.00 | 0.00 | 0.00 | 34 | 1025.2 |
| 20260906001446 | 25 | 21 | 0.0 | 1.6 | 0.00 | 0.00 | 0.00 | 34 | 1025.5 |
| 20260906000940 | 25 | 20 | 1.6 | 1.6 | 0.00 | 0.00 | 0.00 | 34 | 1025.2 |
| 20260906000436 | 25 | 28 | 1.6 | 1.6 | 0.00 | 0.00 | 0.00 | 34 | 1025.2 |
| 20260905235931 | 25 | 35 | 0.0 | 0.0 | 0.00 | 0.00 | 0.00 | 34 | 1025.1 |
| 20260905235430 | 25 | 40 | 1.6 | 1.6 | 0.00 | 0.00 | 0.00 | 35 | 1025.1 |
| 20260905234925 | 25 | 26 | 1.6 | 1.6 | 0.00 | 0.00 | 0.00 | 34 | 1025.5 |
| 20260905234421 | 25 | 25 | 0.0 | 0.0 | 0.00 | 0.00 | 0.00 | 34 | 1025.2 |
| 20260905233915 | 25 | 4 | 1.6 | 1.6 | 0.00 | 0.00 | 0.00 | 33 | 1025.2 |
| 20260905233410 | 25 | 22 | 1.6 | 1.6 | 0.00 | 0.00 | 0.00 | 33 | 1025.1 |
| 20260905232909 | 26 | 39 | 0.0 | 1.6 | 0.00 | 0.00 | 0.00 | 32 | 1025.1 |
| 20260905232406 | 26 | 23 | 1.6 | 1.6 | 0.00 | 0.00 | 0.00 | 33 | 1025.3 |
| 20260905231900 | 25 | 15 | 1.6 | 1.6 | 0.00 | 0.00 | 0.00 | 33 | 1025.0 |
| 20260905231356 | 26 | 357 | 1.6 | 1.6 | 0.00 | 0.00 | 0.00 | 32 | 1025.0 |
| 20260905230853 | 26 | 38 | 0.0 | 1.6 | 0.00 | 0.00 | 0.00 | 33 | 1025.1 |
| 20260905230350 | 25 | 15 | 1.6 | 1.6 | 0.00 | 0.00 | 0.00 | 33 | 1025.2 |
| 20260905225844 | 26 | 27 | 1.6 | 1.6 | 0.00 | 0.00 | 0.00 | 31 | 1024.8 |
| 20260905225339 | 26 | 61 | 0.0 | 1.6 | 0.00 | 0.00 | 0.00 | 31 | 1025.0 |
| 20260905224834 | 26 | 115 | 3.2 | 3.2 | 0.00 | 0.00 | 0.00 | 30 | 1025.1 |
| 20260905224330 | 25 | 17 | 0.0 | 0.0 | 0.00 | 0.00 | 0.00 | 31 | 1025.0 |
| 20260905223824 | 26 | 37 | 3.2 | 3.2 | 0.00 | 0.00 | 0.00 | 32 | 1025.3 |
| 20260905223322 | 25 | 31 | 1.6 | 1.6 | 0.00 | 0.00 | 0.00 | 34 | 1025.2 |
| 20260905222817 | 25 | 24 | 1.6 | 1.6 | 0.00 | 0.00 | 0.00 | 33 | 1024.8 |
| 20260905222316 | 25 | 36 | 1.6 | 1.6 | 0.00 | 0.00 | 0.00 | 30 | 1025.3 |
| 20260905221812 | 25 | 176 | 1.6 | 3.2 | 0.00 | 0.00 | 0.00 | 35 | 1025.6 |
| 20260905221309 | 25 | 13 | 1.6 | 1.6 | 0.00 | 0.00 | 0.00 | 34 | 1025.6 |
| 20260905220804 | 25 | 20 | 0.0 | 0.0 | 0.00 | 0.00 | 0.00 | 33 | 1025.6 |
| 20260905220300 | 25 | 21 | 0.0 | 1.6 | 0.00 | 0.00 | 0.00 | 33 | 1025.6 |
| 20260905215759 | 25 | 4 | 0.0 | 0.0 | 0.00 | 0.00 | 0.00 | 32 | 1025.7 |